Regional Weather Roundup
Issued by NWS

Home | Current Version | Previous Version | Graphics & Text | Print | Product List | Glossary On
Versions: 1 2 3 4 5 6 7 8 9 10 11 12 13 14 15 16 17 18 19 20 21 22 23 24 25 26 27 28 29 30 31 32 33 34 35 36 37 38 39 40 41 42 43 44 45 46 47 48 49 50
000
ASUS43 KMKX 100121
RWRWI

WISCONSIN REGIONAL WEATHER ROUNDUP
NATIONAL WEATHER SERVICE MILWAUKEE/SULLIVAN WI
700 PM CST TUE FEB 09 2016

NOTE: "FAIR" INDICATES FEW OR NO CLOUDS BELOW 12,000 FEET WITH NO
SIGNIFICANT WEATHER AND/OR OBSTRUCTIONS TO VISIBILITY.

WIZ001-002-006>008-014>016-023>028-100200-
NORTHWEST WISCONSIN

CITY           SKY/WX    TMP DP  RH WIND       PRES   REMARKS
SUPERIOR ARPT  CLEAR      8  -4  57 N6        30.15R WCI  -2
ASHLAND        CLOUDY    10   1  67 NW15      30.09S WCI  -7
HAYWARD        CLEAR      7  -4  60 N6        30.05S WCI  -3
SIREN          CLEAR      7  -6  55 NW8       30.11S WCI  -5
CUMBERLAND     CLEAR      9  -6  52 NW10      30.05S WCI  -6
RICE LAKE      CLEAR     10  -5  51 NW7       30.07S WCI  -2
CHETEK         CLEAR      8  -4  58 N3        30.06S
LADYSMITH      CLOUDY    10   0  63 NW12      30.04S WCI  -4
EAU CLAIRE     CLEAR     10  -5  50 NW7       30.05S WCI  -1
MENOMONIE      CLEAR     13  -4  46 NW14G23   30.08R WCI  -2
NEW RICHMOND   CLEAR     10  -3  55 NW10      30.11R WCI  -4
OSCEOLA        CLEAR     11  -3  54 NW7       30.15S WCI   0
$$

WIZ003>005-009-010-017-018-100200-
NORTH CENTRAL WISCONSIN

CITY           SKY/WX    TMP DP  RH WIND       PRES   REMARKS
MANITOWISH WTR LGT SNOW   8   4  84 NW9       29.94S WCI  -6
ARBOR VITAE    LGT SNOW  11   6  80 N13       29.93S WCI  -4
WOODRUFF       LGT SNOW  11   6  80 N13       29.93S WCI  -4
RHINELANDER    FLURRIES   9   1  70 NW10G17   29.92R WCI  -5
EAGLE RIVER    CLOUDY     9   1  71 NW10G21   29.90S WCI  -5
LAND O LAKES   LGT SNOW   9   5  82 N8G17     29.91S WCI  -3
PHILLIPS       CLOUDY     7   2  78 NW6       29.98R WCI  -3
TOMAHAWK       CLOUDY     8   1  73 NW9       29.96R WCI  -5
MEDFORD        CLOUDY     8   0  70 N13G23    29.96S WCI  -8
MERRILL        CLOUDY     9   1  69 NW9       29.97R WCI  -4
$$

WIZ029-030-035-036-043>047-100200-
CENTRAL WISCONSIN

CITY           SKY/WX    TMP DP  RH WIND       PRES   REMARKS
WAUSAU         CLOUDY    11   1  64 NW14G24   29.95R WCI  -5
MOSINEE        CLOUDY    10   1  67 NW15G25   29.97R WCI  -6
MARSHFIELD     CLOUDY    10   1  67 NW23      29.98R WCI -10
STEVENS POINT  CLOUDY    10   0  63 NW13G20   29.97R WCI  -5
WAUPACA        CLOUDY    17   3  54 NW15G22   29.95R WCI   3
WAUTOMA        CLOUDY    14   1  56 NW15G21   29.97R WCI  -1
WISC RAPIDS    CLOUDY    12   0  58 N13       30.00R WCI  -3
CAMP DOUGLAS   PTCLDY    10   0  61 NW13      30.02R WCI  -5
$$

WIZ011>013-019>022-031-037>040-048>050-100200-
NORTHEAST WISCONSIN

CITY           SKY/WX    TMP DP  RH WIND       PRES   REMARKS
ANTIGO         CLOUDY     9   1  70 N18       29.91R WCI -10
SHAWANO        CLOUDY    16   4  57 NW8       29.94S WCI   6
OCONTO         CLOUDY    13   9  83 NW5       29.93R WCI   6
STURGEON BAY   CLOUDY    12   3  67 NW20G28   29.90S WCI  -6
GREEN BAY      FLURRIES  15   6  67 NW10      29.93R WCI   2
MANITOWOC      LGT SNOW  16  10  79 NW14G23   29.90R WCI   1
APPLETON       MOCLDY    16   3  57 NW17G23   29.90R WCI   0
CLINTONVILLE   CLOUDY    16   3  57 N10G22    29.94R WCI   3
OSHKOSH        CLOUDY    16   5  62 N17       29.92R WCI   0
$$

WIZ032>034-041-042-053>061-100200-
SOUTHWEST WISCONSIN

CITY           SKY/WX    TMP DP  RH WIND       PRES   REMARKS
LA CROSSE      CLEAR      8  -3  61 N7        30.07R WCI  -3
SPARTA         PTCLDY    10   1  65 NW7       30.06R WCI  -1
VIROQUA        CLEAR      8  -1  66 NW10      30.00R WCI  -6
BOSCOBEL       CLEAR     13  -1  54 N8        30.06R WCI   2
PRAIRIE DU CHI CLEAR     13   0  56 NW8       30.06R WCI   2
PLATTEVILLE    CLEAR     11   0  62 NW7       30.00R WCI   0
$$

WIZ056-057-062-063-064-067-068-100200-
SOUTH CENTRAL WISCONSIN

CITY           SKY/WX    TMP DP  RH WIND       PRES   REMARKS
REEDSBURG      CLEAR     10  -2  56 NW10      30.00R WCI  -3
BARABOO/DELLS  PTCLDY    10  -3  56 NW7G17    29.99R WCI   0
LONE ROCK      PTCLDY    12  -3  51 W7        30.03R WCI   1
MINERAL POINT  CLEAR     12   0  57 NW8       29.98R WCI   1
MADISON        CLOUDY    14   2  58 NW14G22   29.96R WCI  -1
MIDDLETON      CLOUDY    15   3  60 NW16G22   29.97R WCI  -1
WATERTOWN      MOCLDY    14   6  70 NW14G21   29.93R WCI  -1
MONROE         CLOUDY    14   3  62 NW17G25   29.95S WCI  -3
JANESVILLE     CLOUDY    16   3  57 NW15G21   29.96R WCI   1
$$

WIZ051-052-058>065-066-070>072-100200-
SOUTHEAST WISCONSIN

CITY           SKY/WX    TMP DP  RH WIND       PRES   REMARKS
MILWAUKEE      FLURRIES  17   8  67 NW13      29.91R WCI   4
WAUKESHA       LGT SNOW  12   9  85 W12       29.92R WCI  -2
MILWAUKEE/TIMM FLURRIES  16   9  73 W10       29.91S WCI   3
RACINE         CLOUDY    16   7  67 W8        29.92S WCI   5
BURLINGTON     LGT SNOW  13   8  79 NW14      29.93R WCI  -2
KENOSHA        CLOUDY    16   8  71 W13       29.92R WCI   2
FOND DU LAC    LGT SNOW  17   7  64 N17       29.92R WCI   1
SHEBOYGAN      LGT SNOW  16   9  74 N16       29.90R WCI   1
WEST BEND      LGT SNOW  18  12  79 CALM      29.89S
JUNEAU         CLOUDY    14   7  73 NW9G18    29.93R WCI   2
$$

LSZ147-162-100200-
LAKE SUPERIOR

STATION/POSITION TIME  TEMP    WIND        PRES    WAVE
                       AIR SEA DIR/SP/G            HT/PER
                 (UTC) (F)     (DEG/KT/KT) (MB)    (FT/S)
DEVILS ISLAND    0100    9     340/ 23/ 26 1020.9R
PORT WING        0040   11     340/ 17/ 25 1020.0R
SAXON HARBOR     0000   13                 1017.9
$$

LMZ867-665-643>646-100200-
LAKE MICHIGAN

STATION/POSITION TIME  TEMP    WIND        PRES    WAVE
                       AIR SEA DIR/SP/G            HT/PER
                 (UTC) (F)     (DEG/KT/KT) (MB)    (FT/S)
CHAMBERS ISLAND  0040   14     310/ 18/ 27 1012.2R
ALGOMA LAKESHORE 0011          310/ 15/ 25   N/A
KEWAUNEE LAKESHO 0100   15     330/ 14/ 18 1011.5R
SHEBOYGAN LAKESH 0100   17     320/ 11/ 13 1013.9R
PORT WASHINGTON  0040   18     310/  7/ 13 1013.5R
MILWAUKEE LAKESH 0110   17     290/ 10/ 13   N/A
KENOSHA   LAKESH 0100   16     300/ 13/ 16 1013.2R
$$

TC  - TEMPERATURE IN CELSIUS
VSB - VISIBILITY IN STATUTE MILES
WCI - WIND CHILL INDEX
HX  - HEAT INDEX





USA.gov is the U.S. government's official web portal to all federal, state and local government web resources and services.